GFSNW_prec_radar_120.txt.gz
Reflectivity
-20 -20 -19 -20 -20 -20 -20 -20 -20 -20 -20 -20 -20 -20 -20 -20 -20 -20 -20 -20 -20 -20 -20 -20 -20 -20 -20 -20 -20 -18 -6 3 -0 -20 -20 -20 -20 -2 -19 2 9 -4 -19 -16
-20 3 -12 -20 -20 -20 -20 -20 -20 -20 -20 -20 -20 -20 -20 -20 -20 -20 -20 -20 -20 -20 -20 -20 -20 -20 -20 -20 -20 -20 -20 -11 -20 -20 -20 -20 -20 -20 -20 -20 -20 -20 -20 -20
-20 9 -20 -20 -20 -20 -20 -20 -20 -20 -20 -20 -20 -20 -20 -20 -20 -20 -20 -20 -20 -20 -20 -20 -20 -20 -20 -20 -20 -20 -20 -20 -20 -20 -20 -20 -20 -20 -20 -20 -20 -20 -20 -20
-20 -18 -20 -20 -20 -20 -20 -20 -20 -20 -20 -20 -20 -20 -20 -20 -20 -20 -20 -20 -20 -20 -20 -20 -20 -20 -20 -20 -20 -20 -20 -20 -20 -20 -20 -20 -20 -20 -20 -20 -20 -20 -20 -20
-20 -20 -20 -20 -20 -20 -20 -20 -20 -20 -20 -20 -20 -20 -20 -20 -20 -20 -20 -20 -20 -20 -20 -20 -20 -20 -20 -20 -20 -20 -20 -20 -20 -20 -20 -20 -20 -20 -20 -20 -20 -20 -20 -20
-20 -20 -20 -20 -20 -20 -20 -20 -20 -20 -20 -20 -20 -20 -20 -20 -20 -20 -20 -20 -20 -20 -20 -20 -20 -20 -20 -20 -20 -20 -20 -20 -20 -20 -20 -20 -20 -20 -20 -20 -20 -20 -20 -20
-20 -20 -20 -20 -20 -20 -20 -20 -20 -20 -20 -20 -20 -20 -20 -20 -20 -20 -20 -20 -20 -20 -20 -20 -20 -20 -20 -20 -20 -20 -20 -20 -20 -20 -20 -20 -20 -20 -20 -20 -20 -20 -20 -20
-20 -20 -20 -20 -20 -20 -20 -20 -20 -20 -20 -20 -20 -20 -20 -20 -20 -20 -20 -20 -20 -20 -20 -20 -20 -20 -20 -20 -20 -20 -20 -20 -20 -20 -20 -20 -20 -20 -20 -20 -20 -20 -20 -20
-20 -20 -20 -20 -20 -20 -20 -20 -20 -20 -20 -20 -20 -20 -20 -20 -20 -20 -20 -20 -20 -20 -20 -20 -20 -20 -20 -20 -20 -20 -20 -20 -20 -20 -20 -20 -20 -20 -20 -20 -20 -20 -20 -20
-20 -20 -20 -20 -20 -20 -20 -20 -20 -20 -20 -20 -20 -20 -20 -20 -20 -20 -20 -20 -20 -20 -20 -20 -20 -20 -20 -20 -20 -20 -20 -20 -20 -20 -20 -20 -20 -20 -20 -20 -20 -20 -20 -20
9 -18 -20 -10 -20 -20 -20 -20 -20 -20 -20 -20 -20 -20 -20 -20 -20 -20 -20 -20 -20 -20 -20 -20 -20 -20 -20 -20 -20 -20 -20 -20 -20 -20 -20 -20 -20 -20 -20 -20 -20 -20 -20 -20
14 3 -20 12 -20 -20 -20 -20 -20 -20 -20 -20 -20 -20 -20 -20 -20 -20 -20 -20 -20 -20 -20 -20 -20 -20 -20 -20 -20 -20 -20 -20 -20 -20 -20 -20 -20 -20 -20 -20 -20 -20 -20 -20
14 6 12 10 10 -20 -20 -20 -20 -20 -20 -20 -20 -20 -20 -20 -20 -20 -20 -20 -20 -20 -20 -20 -20 -20 -20 -20 -20 -20 -20 -20 -20 -20 -20 -20 -20 -20 -20 -20 -20 -20 -20 -20
-7 6 15 12 18 -2 -1 -20 -20 -20 -20 -20 -20 -20 -20 -20 -20 -20 -20 -20 -20 -20 -20 -20 -20 -20 -20 -20 -20 -20 -20 -20 -20 -20 -20 -20 -20 -20 -20 -20 -20 -20 -20 -20
-1 -15 7 18 16 13 0 -8 -20 -20 -20 -20 -20 -20 -20 -20 -20 -20 -20 -20 -20 -20 -20 -20 -20 -20 -20 -20 -20 -20 -20 -20 -20 -20 -20 -20 -20 -20 -20 -20 -20 -20 -20 -20
16 -18 -9 15 19 15 0 1 -20 -20 -20 -20 -20 -20 -20 -20 -20 -20 -20 -20 -20 -20 -20 -20 -20 -20 -20 -20 -20 -20 -20 -20 -20 -20 -20 -20 -20 -20 -20 -20 -20 -20 -20 -20
13 25 9 15 17 18 15 4 -19 -15 -20 -20 -20 -20 -20 -20 -20 -20 -20 -20 -20 -20 -20 -20 -20 -20 -20 -20 -20 -20 -20 -20 -20 -20 -20 -20 -20 -20 -20 -20 -20 -20 -20 -20
19 21 26 24 23 23 19 -2 8 -15 -20 -20 -19 -20 -20 -20 -20 -20 -20 -20 -20 -20 -20 -20 -20 -20 -20 -5 -15 -20 -20 -20 -20 -20 -20 -20 -20 -20 -20 -20 -20 -20 -20 -20
21 28 32 27 26 21 -7 12 30 13 -4 16 -7 -20 -20 -20 -14 -14 -14 -16 -12 -20 -20 -20 -20 -20 -17 -8 -4 -11 -20 -20 -20 -20 -20 -20 -20 -20 -20 -20 -20 -20 -20 -20
37 31 30 32 23 25 14 25 34 36 29 24 -4 -20 -20 -20 -6 -1 -20 -20 -20 -20 -20 -20 -20 -20 4 4 -1 -11 -19 -20 -20 -20 -20 -20 -20 -20 -20 -20 -20 -20 -20 -20
35 36 36 27 23 26 32 34 20 7 5 16 0 -18 -20 -20 -20 -1 -7 -20 -20 -10 -20 -20 -14 -20 4 15 14 6 -13 -20 -20 -20 -20 -20 -20 -20 -20 -20 -20 -20 -20 -20
30 32 34 33 36 36 29 20 1 -16 -20 -20 -20 -15 -20 -20 -20 3 13 -7 -20 -20 -20 -5 -20 -19 9 22 27 18 3 -18 -20 -20 -20 -20 -20 -20 -20 -20 -20 -20 -20 -20
25 35 28 29 30 27 22 9 -15 -19 -20 -20 -20 -17 -20 -18 2 13 -4 -19 -20 -20 -20 -20 -18 -7 -18 -18 -20 -17 -12 -11 -20 -20 -20 -20 -20 -20 -20 -20 -20 -20 -20 -18
20 25 29 24 25 18 -15 -20 -20 -20 -20 -20 -20 -20 -20 -20 -13 9 -9 -20 -20 -20 -20 -20 -17 -20 -12 -20 -20 -20 -20 -20 -9 15 14 11 0 -20 -20 -20 -20 -20 -20 -18
22 26 11 25 20 -0 -20 -20 -20 -20 -20 -20 -19 -12 -20 -12 13 -5 -19 -20 -20 -20 -20 -4 -12 -20 -20 -20 -20 -20 -20 -20 5 14 22 13 -10 -20 -15 -20 -20 -20 -20 -20
27 29 27 7 -15 -20 -13 -16 -20 -20 -20 -20 4 11 6 3 -1 -11 -20 -20 -20 -16 8 5 -19 -20 -20 -20 -20 -20 -20 -20 -4 -11 -12 -6 -4 -20 -19 -20 -20 -20 -20 -20
24 14 27 26 2 -20 -20 -20 -20 -20 10 14 8 18 8 8 0 -20 -20 -20 -13 -7 5 6 -17 -20 -20 -20 -20 -20 -20 -20 -6 -8 -20 -9 -20 -20 -20 -20 -20 -19 -18 -20

GFSNW_prec_radar_126.txt.gz
Reflectivity
-7 2 -20 -20 -20 -20 -20 -20 -20 -20 -20 -20 -20 -20 -20 -20 -20 -20 -20 -20 -20 -20 -20 -20 -20 -20 -20 -20 -20 -7 -15 -19 -20 -20 -20 -20 -20 -20 -20 -20 11 5 -12 -16
-20 -11 -3 -20 -20 -20 -20 -20 -20 -20 -20 -20 -20 -20 -20 -20 -20 -20 -20 -20 -20 -20 -20 -20 -20 -20 -20 -20 -20 -20 -20 -20 -20 -20 -20 -20 -20 -20 -20 -20 -20 -20 -20 -20
-20 -20 -13 -10 -20 -20 -20 -20 -20 -20 -20 -20 -20 -20 -20 -20 -20 -20 -20 -20 -20 -20 -20 -20 -20 -20 -20 -20 -20 -20 -20 -20 -20 -20 -20 -20 -20 -20 -20 -16 -20 -20 -20 -20
-20 -20 -20 -19 -20 -20 -20 -20 -20 -20 -20 -20 -20 -20 -20 -20 -20 -20 -20 -20 -20 -20 -20 -20 -20 -20 -20 -20 -20 -20 -20 -20 -20 -20 -20 -20 -20 -20 -20 -20 -20 -20 -20 -20
-20 -20 -20 -20 -20 -20 -20 -20 -20 -20 -20 -20 -20 -20 -20 -20 -20 -20 -20 -20 -20 -20 -20 -20 -20 -20 -20 -20 -20 -20 -20 -20 -20 -20 -20 -20 -20 -20 -20 -20 -20 -20 -20 -20
-20 -20 -20 -20 -20 -20 -20 -20 -20 -20 -20 -20 -20 -20 -20 -20 -20 -20 -20 -20 -20 -20 -20 -20 -20 -20 -20 -20 -20 -20 -20 -20 -20 -20 -20 -20 -20 -20 -20 -20 -20 -20 -20 -20
-14 -20 -20 -20 -20 -20 -20 -20 -20 -20 -20 -20 -20 -20 -20 -20 -20 -20 -20 -20 -20 -20 -20 -20 -20 -20 -20 -20 -20 -20 -20 -20 -20 -20 -20 -20 -20 -20 -20 -20 -20 -20 -20 -20
3 -20 -20 -20 -20 -20 -20 -20 -20 -20 -20 -20 -20 -20 -20 -20 -20 -20 -20 -20 -20 -20 -20 -20 -20 -20 -20 -20 -20 -20 -20 -20 -20 -20 -20 -20 -20 -20 -20 -20 -20 -20 -20 -20
-6 -7 -20 -20 -20 -20 -20 -20 -20 -20 -20 -20 -20 -20 -20 -20 -20 -20 -20 -20 -20 -20 -20 -20 -20 -20 -20 -20 -20 -20 -20 -20 -20 -20 -20 -20 -20 -20 -20 -20 -20 -20 -20 -20
-7 4 -20 -20 -11 -20 -20 -20 -20 -20 -20 -20 -20 -20 -20 -20 -20 -20 -20 -20 -20 -20 -20 -20 -20 -20 -20 -20 -20 -20 -20 -20 -20 -20 -20 -20 -20 -20 -20 -20 -20 -20 -20 -20
-20 5 7 2 -4 10 -19 -20 -20 -20 -20 -20 -20 -20 -20 -20 -20 -20 -20 -20 -20 -20 -20 -20 -20 -20 -20 -20 -20 -20 -20 -20 -20 -20 -20 -20 -20 -20 -20 -20 -20 -20 -20 -20
-19 -5 9 -20 6 9 -8 -20 -9 -19 -20 -20 -20 -20 -20 -19 -20 -20 -20 -20 -20 -20 -20 -20 -20 -20 -20 -20 -20 -20 -20 -20 -20 -20 -20 -20 -20 -20 -20 -20 -20 -20 -20 -20
-20 -9 12 3 6 6 -2 -18 -20 5 -2 -19 -20 -20 -20 -20 -20 -20 -20 -20 -20 -20 -20 -20 -20 -20 -20 -20 -20 -20 -20 -20 -20 -20 -20 -20 -20 -20 -20 -20 -20 -20 -20 -20
-20 -20 -9 4 11 17 -2 -11 -9 -9 -20 -8 -20 -20 -20 -20 -20 -20 -20 -11 -20 -20 -20 -20 -20 -20 -20 -20 -20 -20 -20 -20 -20 -20 -20 -20 -20 -20 -20 -20 -20 -20 -20 -20
-16 -2 8 12 8 21 20 -3 -6 -8 -13 -12 -19 -20 -20 -20 -20 -20 -20 -20 -20 -20 -18 -20 -18 -20 -20 -20 -20 -17 -20 -20 -20 -20 -20 -20 -20 -20 -20 -20 -20 -20 -20 -20
-8 12 15 18 20 28 18 23 -11 -19 -14 4 -16 -20 -20 -20 -20 -20 -20 -20 -20 -20 -20 -20 -20 -4 -7 -20 -19 5 -8 -18 -20 -20 -20 -20 -20 -20 -20 -20 -20 -20 -20 -20
2 3 -0 18 27 26 14 14 11 9 10 14 3 -20 -20 -20 -20 -20 -20 -20 -20 -20 -20 -20 -20 -20 -20 -20 -13 16 6 -7 -19 -20 -20 -20 -20 -20 -20 -20 -20 -20 -20 -20
-8 -15 24 27 26 31 32 21 22 13 19 23 -7 -20 -20 -20 -20 -20 -20 -20 -20 -20 -20 -20 -20 -20 -20 -18 16 7 17 -2 -20 -20 -20 -20 -20 -20 -20 -20 -20 -20 -20 -20
6 13 -4 27 29 27 23 23 26 24 22 20 10 -20 -13 -11 -20 -20 -20 -20 -11 -20 -19 -17 -20 -20 -19 -17 -19 -20 -5 5 -9 -20 -20 -20 -20 -20 -20 -20 -20 -20 -20 -20
7 17 27 37 25 19 23 30 38 38 32 20 1 -20 -20 -20 -19 -19 -9 -20 -20 -6 -20 -20 3 -20 -20 -19 -16 -20 -20 -20 -20 -19 -20 -20 -20 -20 -20 -20 -20 -20 -20 -20
19 18 29 20 26 25 33 26 24 25 -2 -4 -11 -13 -20 -20 -20 -16 5 7 -16 -15 -20 -20 -20 -20 -20 -20 -8 -12 -20 -20 -20 -20 -20 -20 -20 -20 -20 -20 -20 -20 -20 -20
11 14 17 31 39 30 22 24 17 -2 -20 -14 -20 -20 -20 -20 -20 -11 8 -3 9 -4 -20 -12 -20 -20 -20 -20 -20 -20 -20 -20 -20 -20 -20 -20 -20 -20 -20 -20 -20 -20 -13 -2
14 23 19 24 16 21 22 10 2 -19 -18 -20 -13 -20 -20 -20 -20 32 16 13 6 -16 -20 -20 -20 -16 -15 -17 -17 -20 -20 -20 -20 -20 -20 -20 -20 -20 -20 -20 -20 -10 -18 -18
13 1 9 19 17 -8 -20 -20 -20 -20 -20 -20 -9 9 6 21 9 25 15 1 -5 2 -20 -20 -13 -13 -13 -20 -19 -18 -20 -20 -20 -20 -20 -20 -20 -20 -20 -20 -20 -20 -20 -16
23 15 1 6 -20 -20 -20 -20 -19 -20 -12 5 18 17 16 9 18 15 18 16 11 -12 -20 -14 -10 -17 -18 -18 -18 -13 -6 -20 -20 -15 -20 -20 -20 -20 -20 -20 -20 -20 -20 -20
1 7 -19 -20 -14 -20 -20 -3 -3 4 11 31 35 21 17 1 -10 3 -3 4 -14 -16 10 13 6 -0 22 25 10 -4 -20 -20 -20 -19 -9 -19 -20 -20 -20 -20 -20 -20 -20 -13
10 -14 -20 -20 -19 -20 -20 -20 -18 5 21 8 -10 7 13 14 17 8 -1 -19 -20 -13 16 16 -18 6 -15 -20 -20 -20 -20 -20 -20 -19 -1 -10 -20 -20 -20 -20 -20 -20 -20 -20

GFSNW_prec_radar_129.txt.gz
Reflectivity
-20 -20 -20 -20 -20 -20 -20 -20 -20 -20 -20 -20 -20 -20 -20 -20 -20 -20 -20 -20 -20 -20 -20 -20 -20 -20 -20 -20 -20 -20 -20 -20 -20 -20 -20 -20 -20 -20 -20 -20 -1 -20 -7 -20
-20 -20 -20 -20 -20 -20 -20 -20 -20 -20 -20 -20 -20 -20 -20 -20 -20 -20 -20 -20 -20 -20 -20 -20 -20 -20 -20 -20 -20 -20 -20 -20 -20 -20 -20 -20 -20 -20 -20 -20 -20 -20 -20 -20
-20 -20 -20 -20 -20 -20 -20 -20 -20 -20 -20 -20 -20 -20 -20 -20 -20 -20 -20 -20 -20 -20 -20 -20 -20 -20 -20 -20 -20 -20 -20 -20 -20 -20 -20 -20 -20 -20 -20 -20 -20 -20 -20 -20
-12 -20 -20 -20 -20 -20 -20 -20 -20 -20 -20 -20 -20 -20 -20 -20 -20 -20 -20 -20 -20 -20 -20 -20 -20 -20 -20 -20 -20 -20 -20 -20 -20 -20 -20 -20 -20 -20 -20 -20 -20 -20 -20 -20
-20 -20 -20 -20 -20 -20 -20 -20 -20 -20 -20 -20 -20 -20 -20 -20 -20 -20 -20 -20 -20 -20 -20 -20 -20 -20 -20 -20 -20 -20 -20 -20 -20 -20 -20 -20 -20 -20 -20 -20 -20 -20 -20 -20
-11 -20 -20 -20 -20 -20 -20 -20 -20 -20 -20 -20 -20 -20 -20 -20 -20 -20 -20 -20 -20 -20 -20 -20 -20 -20 -20 -20 -20 -20 -20 -20 -20 -20 -20 -20 -20 -20 -20 -20 -20 -20 -20 -20
-17 5 -20 -20 -20 -20 -20 -20 -20 -20 -20 -20 -20 -20 -20 -20 -20 -20 -20 -20 -20 -20 -20 -20 -20 -20 -20 -20 -20 -20 -20 -20 -20 -20 -20 -20 -20 -20 -20 -20 -20 -20 -20 -20
-20 7 -18 -20 -20 -20 -11 -20 -20 -20 -20 -20 -20 -20 -20 -20 -20 -20 -20 -20 -20 -20 -20 -20 -20 -20 -20 -20 -20 -20 -20 -20 -20 -20 -20 -20 -20 -20 -20 -20 -20 -20 -20 -20
-20 -20 -20 -19 -11 -20 -20 -19 -20 -20 -20 -20 -20 -20 -20 -20 -20 -20 -20 -20 -20 -20 -20 -20 -20 -20 -20 -20 -20 -20 -20 -20 -20 -20 -20 -20 -20 -20 -20 -20 -20 -20 -20 -20
-20 -16 9 -10 -11 2 -20 -20 -20 -20 -20 -20 -20 -20 -20 -20 -20 -20 -20 -20 -20 -20 -20 -20 -20 -20 -20 -20 -20 -20 -20 -20 -18 -19 -20 -20 -20 -20 -20 -20 -20 -20 -20 -20
0 -20 4 20 9 4 -11 -20 -20 -20 -1 -20 -20 -20 -20 -20 -20 -20 -20 -20 -20 -20 -20 -20 -20 -20 -20 -20 -20 -20 -20 -20 -20 -20 -20 -20 -20 -20 -20 -20 -20 -20 -20 -20
8 -8 -9 13 20 -7 -20 -20 -20 -20 -20 -20 -20 -20 -20 -20 -20 -20 -20 -20 -20 -20 -20 -20 -20 -20 -20 -20 -20 -20 -20 -20 -20 -20 -20 -20 -20 -20 -20 -20 -20 -20 -20 -20
5 -16 -20 2 18 21 3 -20 -18 -17 -20 -20 -20 -20 -20 -20 -20 -20 -20 -20 -20 -20 -20 -20 -20 -20 -20 -20 -20 -20 -20 -20 -20 -20 -20 -20 -20 -20 -20 -20 -20 -20 -20 -20
1 7 -10 -1 1 21 21 -17 -18 -5 -8 -20 -20 -20 -20 -16 -14 -18 -20 -20 -20 -20 -20 -20 -20 -20 -11 -20 -20 -17 -7 -9 -18 -20 -20 -20 -20 -20 -20 -20 -20 -20 -20 -20
-18 -16 -18 -18 9 19 26 15 1 -2 -4 -12 -20 -20 -20 -20 -20 -20 -20 -20 -20 -20 -20 -20 -20 -20 -20 -20 -20 -2 1 -4 -17 -20 -20 -20 -20 -20 -20 -20 -20 -20 -20 -20
-7 -3 -20 -20 -7 24 29 27 14 -16 -6 15 4 -20 -20 -20 -20 -20 -20 -20 -20 -20 -20 -20 -20 -20 -20 -20 -20 16 33 6 -16 -16 -20 -20 -20 -20 -20 -20 -20 -20 -20 -20
9 30 13 9 15 30 25 26 18 13 12 31 15 -20 -20 -20 -20 -20 -20 -20 -20 -8 6 -16 -20 -20 -20 -20 -20 20 18 -20 -13 -20 -20 -20 -20 -20 -20 -20 -20 -20 -20 -20
-16 19 -9 20 20 26 28 16 30 23 23 21 18 -20 -20 -20 -20 -20 -20 -20 -20 -20 -20 -20 -20 -20 -20 -20 -13 -9 -7 -20 -20 -20 -20 -20 -20 -20 -20 -20 -20 -20 -20 -20
-20 -11 -20 -20 -17 -7 10 19 34 31 22 27 18 -20 -20 -20 -20 -20 -20 -20 -2 -20 -20 -17 -20 -20 -20 -18 -19 -20 -20 -20 -20 -20 -20 -20 -20 -20 -20 -20 -20 -20 -20 -20
-20 -19 -20 -2 -3 7 14 24 36 38 35 33 15 -10 -20 -20 -20 -20 3 2 -3 -17 -20 -20 -7 -20 -20 -20 -20 -20 -20 -20 -20 -20 -20 -20 -20 -20 -20 -20 -20 -20 -20 -20
-10 2 14 -3 13 9 21 22 21 21 12 -4 -5 -19 -20 -20 -20 1 12 18 14 7 -20 -20 -20 -20 -20 -20 -20 -20 -20 -20 -20 -20 -20 -20 -20 -20 -20 -20 -20 -20 -20 -20
-4 14 8 14 19 12 15 18 10 8 -18 -20 -20 -20 -20 -20 -20 -20 12 16 19 16 -5 -19 -20 -20 -20 -13 -18 -20 -20 -20 -20 -20 -20 -20 -20 -20 -20 -20 -20 -20 -20 -20
-20 -19 -15 -14 -5 8 4 -18 0 -1 -20 -20 -12 -20 5 -11 -20 13 7 8 14 2 -0 -20 -20 -20 -20 -20 -20 -20 -20 -20 -20 -20 -20 -20 -20 -20 -20 -20 -20 -20 -20 -20
4 5 16 -19 -20 -20 -20 -20 -20 -20 -20 -20 -20 -20 -20 -8 2 10 11 -5 3 15 3 -20 -20 -20 -20 -20 -20 -20 -20 -20 -20 -20 -20 -20 -20 -19 -20 -20 -18 -5 2 1
18 -0 -1 -20 -20 -20 -20 -17 -20 -17 -18 -12 -15 4 16 8 17 6 16 18 -1 -19 -20 -19 -20 -20 -20 -19 -19 -20 -20 -20 -20 -20 -20 -20 -20 -20 -20 -20 -15 -10 -13 -8
24 5 -15 -20 -20 -20 -20 -20 -20 -20 -20 19 8 18 25 22 13 17 5 14 11 -15 -18 8 -1 9 23 29 18 18 10 -8 -20 -19 -20 -20 -20 -20 -20 -20 -17 -2 -1 -20
27 17 -20 -20 -20 -20 -20 -20 20 18 26 21 13 14 23 11 10 2 -8 -19 -20 -13 -12 5 16 -7 -20 -20 -20 -20 -20 -20 -20 -20 -20 -20 -20 -18 -15 -4 6 4 6 -4

GFSNW_prec_radar_135.txt.gz
Reflectivity
-20 -20 -20 -20 -20 -20 -20 -20 -20 -20 -20 -20 -20 -20 -20 -20 -20 -20 -20 -20 -20 -20 -20 -20 -20 -20 -20 -20 -20 -20 -20 -20 -20 -20 -20 -20 -20 -20 -20 -20 -20 -20 -20 -20
-20 -20 -20 -20 -20 -20 -20 -20 -20 -20 -20 -20 -20 -20 -20 -20 -20 -20 -20 -20 -20 -20 -20 -20 -20 -20 -20 -20 -20 -20 -20 -20 -20 -20 -20 -20 -20 -20 -20 -20 -20 -20 -20 -20
-20 -20 -20 -20 -20 -20 -20 -20 -20 -20 -20 -20 -20 -20 -20 -20 -20 -20 -20 -20 -20 -20 -20 -20 -20 -20 -20 -20 -20 -20 -20 -20 -20 -20 -20 -20 -20 -20 -20 -20 -20 -20 -20 -20
-20 -20 -20 -20 -20 -20 -20 -20 -20 -20 -20 -20 -20 -20 -20 -20 -20 -20 -20 -20 -20 -20 -20 -20 -20 -20 -20 -20 -20 -20 -20 -20 -20 -20 -20 -20 -20 -20 -20 -20 -20 -20 -20 -20
-20 -20 -20 -20 -20 -20 -20 -20 -20 -20 -20 -20 -20 -20 -20 -20 -20 -20 -20 -20 -20 -20 -20 -20 -20 -20 -20 -20 -20 -20 -20 -20 -20 -20 -20 -20 -20 -20 -20 -20 -20 -20 -20 -20
-20 -20 -20 -20 -20 -20 -20 2 -20 -20 -20 -20 -20 -20 -20 -20 -20 -20 -20 -20 -20 -20 -20 -20 -20 -20 -20 -20 -20 -20 -20 -20 -20 -20 -20 -20 -20 -20 -20 -20 -20 -20 -20 -20
-20 -20 -20 -20 -20 -20 -20 -20 -20 -4 -20 -20 -20 -20 -20 -20 -20 -20 -20 -20 -20 -20 -20 -20 -20 -20 -20 -20 -20 -20 -20 -20 -20 -20 -20 -20 -20 -20 -20 -20 -20 -20 -20 -20
-18 -20 -20 -20 -20 -20 4 -5 -20 -20 -20 -20 -5 -16 -20 -20 -20 -20 -20 -20 -20 -20 -20 -20 -20 -20 -20 -20 -20 -20 -20 -20 -20 -20 -20 -20 -20 -20 -20 -20 -20 -20 -20 -20
4 -20 -6 -20 -20 -11 -20 -20 -20 -20 -20 -20 -20 6 -19 -20 -20 -20 -20 -20 -20 -20 -20 -20 -20 -20 -20 -20 -20 -20 -20 -20 -20 -20 -20 -20 -20 -20 -20 -20 -20 -20 -20 -20
4 6 -20 5 8 2 -12 -20 -20 -20 -20 -20 -20 -20 -12 -0 -20 -20 -20 -20 -20 -20 -20 -20 -20 -20 -20 -20 -20 -20 -20 -20 -18 -20 -20 -20 -20 -20 -20 -20 -20 -20 -20 -20
-20 -18 -6 -15 -20 -18 -6 -20 -20 -20 -20 -20 -20 -20 -20 -20 -20 -20 -20 -20 -20 -20 -20 -20 -20 -20 -20 -20 -20 -20 -20 -20 -20 -20 -20 -20 -20 -20 -20 -20 -20 -20 -20 -20
-20 -1 3 7 -4 7 13 -10 -20 -10 -6 -20 -20 -20 -20 -20 -20 -15 -20 -20 -20 -17 -20 -20 -20 -20 -20 -20 -20 -20 -20 -20 -20 -20 -20 -20 -20 -20 -20 -20 -20 -20 -20 -20
-18 -0 6 -16 9 18 19 7 5 -4 8 -4 -20 -20 -20 -20 -20 -17 -19 -20 -20 -16 -7 1 -12 -20 -20 -20 -20 -20 -20 -20 -20 -20 -20 -20 -20 -20 -20 -20 -20 -20 -20 -20
-20 -3 13 4 21 -14 17 19 -6 6 17 18 6 -20 -20 -20 -20 -20 -11 -5 -10 -16 -11 -7 8 -9 -20 -20 -20 -20 -19 -10 -16 -18 -20 -20 -20 -10 -11 -20 -20 -20 -20 -20
-20 -20 -17 4 -20 3 12 4 6 -20 -13 4 10 5 -20 -20 -20 -20 -8 -6 12 20 18 20 11 3 -7 -19 -20 -20 -13 9 7 -16 -7 26 7 -13 -14 -20 -20 -20 -20 -20
-20 -20 -20 -20 -20 6 -15 16 2 15 21 18 11 14 2 -20 -20 -20 -20 -20 -20 8 24 24 9 -19 -3 16 3 -20 -7 7 5 -18 -20 -20 -20 -20 -2 -20 -20 -20 -20 -20
-20 -20 -20 -20 -20 9 -9 9 -20 2 11 27 18 10 13 -19 -20 -20 -20 -20 -20 -20 18 31 19 -20 6 17 -6 -20 -6 -1 -8 -20 -20 -20 -20 -20 -20 -20 -20 -20 -20 -20
-20 -20 -20 -20 -17 -9 8 -20 9 23 24 27 18 20 3 -20 -20 -20 -20 -20 -20 -9 8 23 12 11 32 20 -17 -20 -20 -19 -20 -20 -20 -20 -20 -20 -19 -9 -11 -20 -20 -20
-20 -20 -20 -20 -20 -20 -18 -20 -8 -20 14 29 24 -20 -20 2 -20 -20 -12 -20 -20 -19 -19 -18 -7 -20 -19 -20 -20 -20 -20 -20 -20 -20 -20 -20 -20 -20 -20 -20 -20 -18 -13 -6
-20 -20 -20 -20 -0 -12 11 -20 -4 19 19 32 3 -4 -20 -20 -20 -20 -20 19 -5 -18 -20 -8 -17 -20 -20 -20 -20 -20 -20 -20 -20 -20 -20 -15 -20 -20 -20 -20 -20 -20 -20 -20
-20 -20 -18 -20 0 -4 -12 6 9 -16 -18 -11 -20 -20 -20 -20 -20 -20 -12 3 -9 8 -20 -18 -8 -20 -20 -20 -20 -20 -20 -20 -20 -20 -20 -20 -20 -20 -5 5 1 -18 -20 -20
-15 -17 -20 2 3 -8 -17 4 -20 -20 -20 -20 -20 -20 -20 -20 -20 -19 13 12 14 -10 -20 9 4 -20 -20 -20 -20 -20 -20 -20 -20 -20 -20 -20 -20 -20 -20 -20 -9 -3 -12 -20
-15 -18 -20 -16 -9 6 9 -12 -16 -20 -20 -20 -20 -20 -20 -14 7 27 17 19 13 16 15 -18 -20 -20 -20 -20 -20 -20 -20 -20 -20 -20 -20 -20 -20 -20 -20 -20 -20 -18 -19 -20
-18 9 -3 -20 -20 -20 -20 -20 -20 -20 -20 -20 -20 -18 -16 20 17 9 13 -20 -19 -19 -20 -20 -20 -20 -20 -20 -20 -20 -20 -13 14 6 -11 -4 -15 -20 -20 -20 -20 -20 -4 -15
-20 8 0 -20 -20 -20 -20 -20 -20 -20 -20 23 -4 -19 7 -20 8 -9 -17 5 -18 -20 -20 -20 -20 -20 -19 -20 -14 -8 -14 6 18 20 11 -9 -8 -20 -20 -20 -20 -20 -20 -20
-1 -20 -12 3 -20 -20 -20 -20 -20 -20 -20 -20 17 -6 -18 13 23 20 18 21 7 -10 9 8 15 33 41 31 35 26 10 -0 9 4 5 8 -20 -20 -20 -20 -18 -20 -16 -20
16 -13 -20 -20 -20 -20 -20 -20 -20 -20 -20 -20 4 17 -16 -20 -5 -20 -20 -16 -0 16 4 -17 -18 2 28 29 16 18 21 2 -19 5 -7 -20 -20 -20 -20 -20 -20 -20 -20 -20